EN

Hourly Weather Abidzhan

Today, 27 November, Friday

Time Temperature Precipitation Wind Pressure Humidity
00:00 +27°C° 0 mm 2 mps 754 mmHg 88%
01:00 +26°C° 0 mm 2 mps 754 mmHg 88%
02:00 +26°C° 0 mm 2 mps 753 mmHg 88%
03:00 +26°C° 0 mm 2 mps 753 mmHg 89%
04:00 +26°C° 0 mm 2 mps 753 mmHg 89%
05:00 +26°C° 0 mm 2 mps 753 mmHg 88%
06:00 +26°C° 0 mm 2 mps 753 mmHg 88%
07:00 +27°C° 0 mm 2 mps 754 mmHg 83%
08:00 +28°C° 0 mm 2 mps 755 mmHg 77%
09:00 +30°C° 0 mm 3 mps 755 mmHg 72%
10:00 +30°C° 0.1 mm 3 mps 755 mmHg 70%
11:00 +31°C° 0.1 mm 3 mps 754 mmHg 67%
12:00 +33°C° 0.1 mm 4 mps 754 mmHg 65%
13:00 +32°C° 0.5 mm 4 mps 753 mmHg 67%
14:00 +32°C° 0.5 mm 4 mps 753 mmHg 70%
15:00 +30°C° 0.5 mm 4 mps 753 mmHg 72%
16:00 +30°C° 0.2 mm 4 mps 753 mmHg 76%
17:00 +29°C° 0.2 mm 4 mps 753 mmHg 79%
18:00 +28°C° 0.2 mm 4 mps 754 mmHg 83%
19:00 +28°C° 0.7 mm 3 mps 754 mmHg 84%
20:00 +27°C° 0.7 mm 3 mps 755 mmHg 86%
21:00 +27°C° 0.7 mm 2 mps 756 mmHg 87%
22:00 +27°C° 0.4 mm 2 mps 756 mmHg 87%
23:00 +27°C° 0.4 mm 2 mps 755 mmHg 88%

Tomorrow, 28 November, Saturday

Time Temperature Precipitation Wind Pressure Humidity
00:00 +27°C° 0.4 mm 2 mps 755 mmHg 88%
01:00 +26°C° 1.3 mm 2 mps 755 mmHg 88%
02:00 +26°C° 1.3 mm 2 mps 754 mmHg 89%
03:00 +26°C° 1.3 mm 1 mps 754 mmHg 89%
04:00 +26°C° 0.3 mm 1 mps 754 mmHg 88%
05:00 +26°C° 0.3 mm 2 mps 754 mmHg 88%
06:00 +26°C° 0.3 mm 2 mps 755 mmHg 87%
07:00 +27°C° 0 mm 2 mps 755 mmHg 83%
08:00 +28°C° 0 mm 2 mps 755 mmHg 79%
09:00 +29°C° 0 mm 2 mps 756 mmHg 75%
10:00 +31°C° 0 mm 2 mps 755 mmHg 69%
11:00 +32°C° 0 mm 2 mps 755 mmHg 62%
12:00 +35°C° 0 mm 3 mps 755 mmHg 56%
13:00 +34°C° 0.7 mm 3 mps 754 mmHg 60%
14:00 +33°C° 0.7 mm 3 mps 753 mmHg 64%
15:00 +31°C° 0.7 mm 3 mps 753 mmHg 68%
16:00 +30°C° 0.2 mm 3 mps 753 mmHg 72%
17:00 +29°C° 0.2 mm 3 mps 753 mmHg 75%
18:00 +28°C° 0.2 mm 3 mps 754 mmHg 79%
19:00 +28°C° 0.4 mm 2 mps 754 mmHg 82%
20:00 +28°C° 0.4 mm 2 mps 755 mmHg 84%
21:00 +27°C° 0.4 mm 2 mps 756 mmHg 87%
22:00 +27°C° 0.6 mm 2 mps 755 mmHg 88%
23:00 +27°C° 0.6 mm 2 mps 755 mmHg 88%

Day after tomorrow, 29 November, Sunday

Time Temperature Precipitation Wind Pressure Humidity
00:00 +27°C° 0.6 mm 2 mps 755 mmHg 89%
01:00 +27°C° 0 mm 2 mps 754 mmHg 89%
02:00 +27°C° 0 mm 2 mps 754 mmHg 89%
03:00 +27°C° 0 mm 2 mps 754 mmHg 89%
04:00 +26°C° 0 mm 2 mps 754 mmHg 90%
05:00 +26°C° 0 mm 2 mps 754 mmHg 90%
06:00 +26°C° 0 mm 2 mps 754 mmHg 91%
07:00 +28°C° 0 mm 2 mps 754 mmHg 86%
08:00 +29°C° 0 mm 2 mps 755 mmHg 80%
09:00 +30°C° 0 mm 2 mps 755 mmHg 75%
10:00 +31°C° 0.1 mm 3 mps 755 mmHg 73%
11:00 +31°C° 0.1 mm 3 mps 755 mmHg 71%
12:00 +31°C° 0.1 mm 3 mps 754 mmHg 69%
13:00 +31°C° 0.1 mm 3 mps 754 mmHg 69%
14:00 +31°C° 0.1 mm 3 mps 753 mmHg 69%
15:00 +31°C° 0.1 mm 3 mps 753 mmHg 69%
16:00 +30°C° 0 mm 3 mps 753 mmHg 72%
17:00 +30°C° 0 mm 3 mps 753 mmHg 76%
18:00 +29°C° 0 mm 3 mps 753 mmHg 79%
19:00 +28°C° 0 mm 3 mps 754 mmHg 82%
20:00 +28°C° 0 mm 2 mps 754 mmHg 84%
21:00 +27°C° 0 mm 2 mps 755 mmHg 86%
22:00 +27°C° 0.2 mm 2 mps 754 mmHg 87%
23:00 +27°C° 0.2 mm 2 mps 754 mmHg 88%

30 November, Monday

Time Temperature Precipitation Wind Pressure Humidity
00:00 +27°C° 0.2 mm 3 mps 754 mmHg 89%
01:00 +27°C° 0 mm 3 mps 754 mmHg 89%
02:00 +27°C° 0 mm 3 mps 753 mmHg 90%
03:00 +27°C° 0 mm 2 mps 753 mmHg 90%
04:00 +27°C° 0 mm 2 mps 753 mmHg 90%
05:00 +27°C° 0 mm 2 mps 753 mmHg 90%
06:00 +27°C° 0 mm 2 mps 754 mmHg 90%
07:00 +28°C° 0 mm 3 mps 754 mmHg 85%
08:00 +29°C° 0 mm 3 mps 755 mmHg 80%
09:00 +30°C° 0 mm 3 mps 755 mmHg 74%
10:00 +31°C° 0.2 mm 3 mps 755 mmHg 72%
11:00 +31°C° 0.2 mm 3 mps 755 mmHg 69%
12:00 +33°C° 0.2 mm 3 mps 754 mmHg 67%
13:00 +31°C° 0.4 mm 3 mps 754 mmHg 68%
14:00 +31°C° 0.4 mm 3 mps 754 mmHg 69%
15:00 +31°C° 0.4 mm 3 mps 753 mmHg 71%
16:00 +30°C° 0.4 mm 3 mps 753 mmHg 75%
17:00 +29°C° 0.4 mm 3 mps 754 mmHg 79%
18:00 +28°C° 0.4 mm 2 mps 754 mmHg 83%
19:00 +28°C° 0 mm 2 mps 754 mmHg 85%
20:00 +27°C° 0 mm 2 mps 755 mmHg 86%
21:00 +27°C° 0 mm 2 mps 755 mmHg 87%
22:00 +27°C° 0 mm 2 mps 755 mmHg 88%
23:00 +27°C° 0 mm 2 mps 755 mmHg 88%

1 December, Tuesday

Time Temperature Precipitation Wind Pressure Humidity
00:00 +27°C° 0 mm 2 mps 755 mmHg 89%
01:00 +27°C° 0 mm 2 mps 755 mmHg 90%
02:00 +27°C° 0 mm 2 mps 754 mmHg 90%
03:00 +26°C° 0 mm 2 mps 754 mmHg 91%
04:00 +26°C° 0 mm 2 mps 754 mmHg 91%
05:00 +26°C° 0 mm 2 mps 754 mmHg 91%
06:00 +26°C° 0 mm 2 mps 754 mmHg 91%
07:00 +27°C° 0 mm 3 mps 754 mmHg 86%
08:00 +29°C° 0 mm 3 mps 755 mmHg 80%
09:00 +30°C° 0 mm 3 mps 755 mmHg 75%
10:00 +31°C° 0.1 mm 3 mps 755 mmHg 71%
11:00 +31°C° 0.1 mm 3 mps 755 mmHg 68%
12:00 +33°C° 0.1 mm 3 mps 755 mmHg 65%
13:00 +33°C° 0.1 mm 3 mps 754 mmHg 64%
14:00 +33°C° 0.1 mm 3 mps 754 mmHg 64%
15:00 +33°C° 0.1 mm 3 mps 753 mmHg 64%
16:00 +31°C° 0.1 mm 3 mps 754 mmHg 69%
17:00 +30°C° 0.1 mm 3 mps 754 mmHg 74%
18:00 +28°C° 0.1 mm 2 mps 754 mmHg 79%
19:00 +28°C° 0 mm 2 mps 754 mmHg 81%
20:00 +28°C° 0 mm 2 mps 755 mmHg 83%
21:00 +27°C° 0 mm 2 mps 756 mmHg 85%
22:00 +27°C° 0.1 mm 2 mps 756 mmHg 86%
23:00 +27°C° 0.1 mm 2 mps 755 mmHg 87%

2 December, Wednesday

Time Temperature Precipitation Wind Pressure Humidity
00:00 +27°C° 0.1 mm 3 mps 755 mmHg 88%
01:00 +27°C° 0 mm 3 mps 755 mmHg 88%
02:00 +26°C° 0 mm 3 mps 754 mmHg 89%
03:00 +26°C° 0 mm 3 mps 754 mmHg 90%
04:00 +26°C° 0 mm 3 mps 754 mmHg 90%
05:00 +26°C° 0 mm 3 mps 754 mmHg 91%
06:00 +26°C° 0 mm 3 mps 754 mmHg 91%
07:00 +27°C° 0 mm 3 mps 754 mmHg 85%
08:00 +28°C° 0 mm 3 mps 755 mmHg 80%
09:00 +30°C° 0 mm 3 mps 755 mmHg 74%
10:00 +30°C° 0.1 mm 3 mps 755 mmHg 71%
11:00 +31°C° 0.1 mm 3 mps 755 mmHg 67%
12:00 +33°C° 0.1 mm 3 mps 754 mmHg 64%
13:00 +33°C° 0.1 mm 3 mps 754 mmHg 64%
14:00 +33°C° 0.1 mm 4 mps 753 mmHg 64%
15:00 +33°C° 0.1 mm 4 mps 753 mmHg 64%
16:00 +30°C° 0.2 mm 3 mps 753 mmHg 68%
17:00 +29°C° 0.2 mm 3 mps 753 mmHg 73%
18:00 +28°C° 0.2 mm 3 mps 754 mmHg 78%
19:00 +28°C° 0.1 mm 3 mps 754 mmHg 80%
20:00 +28°C° 0.1 mm 2 mps 755 mmHg 83%
21:00 +27°C° 0.1 mm 2 mps 756 mmHg 85%
22:00 +27°C° 0 mm 2 mps 755 mmHg 86%
23:00 +27°C° 0 mm 3 mps 755 mmHg 87%
Show more